Regional Weather Roundup
Issued by NWS

Home | Current Version | Previous Version | Graphics & Text | Print | Product List | Glossary On
Versions: 1 2 3 4 5 6 7 8 9 10 11 12 13 14 15 16 17 18 19 20 21 22 23 24 25 26 27 28 29 30 31 32 33 34 35 36 37 38 39 40 41 42 43 44 45 46 47 48 49 50
000
ASUS45 KABQ 230710
RWRNM
NEW MEXICO REGIONAL WEATHER ROUNDUP
NATIONAL WEATHER SERVICE ALBUQUERQUE NM
100 AM MDT SAT MAY 23 2015

NOTE: "FAIR" MEANS FEW OR NO CLOUDS BELOW 12,000 FEET AGL WITH NO
       SIGNIFICANT WEATHER OR OBSTRUCTIONS TO VISION.

      THIS PRODUCT IS RELEASED AS TWO VERSIONS.  ONE VERSION NEAR
      THE TOP OF THE HOUR CONTAINING PRELIMINARY DATA FROM ALBUQUERQUE
      AND OTHER STATIONS.  A FINAL VERSION WITH ADDITIONAL DATA IS
      ISSUED ABOUT 10 MINUTES AFTER THE HOUR.

NMZ501-503-504-510>518-230800-
NORTHWEST PLATEAU/NORTHCENTRAL MOUNTAINS

CITY           SKY/WX    TMP DP  RH WIND       PRES   REMARKS
FARMINGTON     CLEAR     54  30  40 W9        30.00R
LOS ALAMOS     CLOUDY    54  48  82 S12G20    30.08R
SANTA FE       PTCLDY    55  50  83 SE22G28   30.00F
TAOS           PTCLDY    46  34  61 W3        30.06R
ANGEL FIRE     FAIR      48  39  71 S16       30.11F

$$
NMZ402-403-502-505>509-230800-
WESTCENTRAL MOUNTAINS/SOUTHWEST MOUNTAINS

CITY           SKY/WX    TMP DP  RH WIND       PRES   REMARKS
GALLUP         CLOUDY    46  25  43 SW7       30.06S
GRANTS         MOCLDY    49  26  40 W10G16    30.08R
SILVER CITY    CLEAR     55  19  24 NW16      30.05S

$$
NMZ407-409-411-412-230800-
SOUTHERN DESERTS

CITY           SKY/WX    TMP DP  RH WIND       PRES   REMARKS
LORDSBURG      FAIR      57  23  26 NW5       30.01F
DEMING         CLEAR     63  22  20 W16       29.98S
LAS CRUCES     MOCLDY    67  19  15 W14       29.99S
HOLLOMAN AFB   MOCLDY    69  48  47 SW8       29.93R
ALAMOGORDO     PTCLDY    70  37  30 S15       29.95S
T OR C         PTCLDY    64  20  18 W12       29.94R

$$
NMZ519>523-230800-
CENTRAL VALLEYS/CENTRAL HIGHLANDS

CITY           SKY/WX    TMP DP  RH WIND       PRES   REMARKS
ALBUQUERQUE    MOCLDY    61  25  25 SW5       29.98R
DOUBLE EAGLE   MOCLDY    51  35  54 W5        30.00R
MORIARTY ARPT  FAIR      54  50  88 SW7       30.03F
CLINES CORNERS CLOUDY    53  51  93 S16       30.04F
BELEN          FAIR      53  20  27 NW6       29.97R
SOCORRO        FAIR      54  36  50 CALM      29.94S

$$
NMZ524>526-539-540-230800-
SOUTHCENTRAL MOUNTAINS

CITY           SKY/WX    TMP DP  RH WIND       PRES   REMARKS
RUIDOSO        PTCLDY    52  46  82 SW10      30.10S

$$
NMZ527>531-230800-
NORTHEAST HIGHLANDS/NORTHEAST PLAINS

CITY           SKY/WX    TMP DP  RH WIND       PRES   REMARKS
LAS VEGAS      CLOUDY    52  51  97 S15G23    30.07F
RATON          LGT RAIN  52  49  89 S12G32    30.06F
CLAYTON        CLOUDY    55  53  93 S20G30    30.04F

$$
NMZ532>537-230800-
EASTCENTRAL PLAINS

CITY           SKY/WX    TMP DP  RH WIND       PRES   REMARKS
TUCUMCARI      CLOUDY    63  57  81 S5        29.96S
CANNON AFB     CLOUDY    59  59 100 SE17      29.99F FOG
CLOVIS AIRPORT CLOUDY    59  57  94 SE20G28   29.98F

$$
NMZ028-029-538-230800-
SOUTHEAST PLAINS

CITY           SKY/WX    TMP DP  RH WIND       PRES   REMARKS
ROSWELL        CLOUDY    67  62  84 S15       29.95R
ARTESIA        CLOUDY    68  66  94 S15G22    29.96R
CARLSBAD       MOCLDY    69  64  84 SE12      29.92F
HOBBS          CLOUDY    64  64 100 SE15      29.99F FOG


$$



USA.gov is the U.S. government's official web portal to all federal, state and local government web resources and services.